Regional Weather Roundup
Issued by NWS

Home | Current Version | Previous Version | Text Only | Print | Product List | Glossary On
Versions: 1 2 3 4 5 6 7 8 9 10 11 12 13 14 15 16 17 18 19 20 21 22 23 24 25 26 27 28 29 30 31 32 33 34 35 36 37 38 39 40 41 42 43 44 45 46 47 48 49 50
000
ASUS43 KMPX 040210
RWRMN
WEATHER ROUNDUP FOR MINNESOTA
NATIONAL WEATHER SERVICE TWIN CITIES/CHANHASSEN MN
900 PM CDT FRI JUL 03 2020


NOTE: "FAIR" INDICATES FEW OR NO CLOUDS BELOW 12,000 FEET WITH NO
SIGNIFICANT WEATHER AND/OR OBSTRUCTIONS TO VISIBILITY. N/A MEANS
CURRENT SKY AND/OR WEATHER CONDITIONS ARE NOT AVAILABLE.

MNZ060>063-068>070-040300-
   Twin Cities Metro

CITY           SKY/WX    TMP DP  RH WIND       PRES   REMARKS
TWIN CITIES    MOCLDY    80  69  69 W12       30.05F
ST PAUL        PTCLDY    83  70  64 CALM      30.05S
CRYSTAL        PTCLDY    79  66  64 S3        30.04S
BLAINE         MOCLDY    84  66  54 CALM      30.05S
LAKEVILLE      PTCLDY    81  73  78 CALM      30.06S
EDEN PRAIRIE   CLOUDY    81  65  58 E13       30.04F
SOUTH ST PAUL  PTCLDY    85  65  52 CALM      30.05S
LAKE ELMO      FAIR      77  72  83 CALM      30.07S
$$
MNZ001>005-007-008-013>017-022>024-027-028-040300-
   Northwest Minnesota

CITY           SKY/WX    TMP DP  RH WIND       PRES   REMARKS
BEMIDJI        CLEAR     81  69  66 S3        30.07S
HALLOCK        CLEAR     88  75  66 CALM      30.01S HX  97
ROSEAU           N/A     66  61  82 NE18G25   30.10R
WARROAD        TSTM      64  61  88 NW15      30.12S
THIEF RVR FALL CLEAR     83  73  72 W3        30.05S
CROOKSTON      CLEAR     82  73  74 S6        30.02F
FOSSTON        CLEAR     79  63  57 SE3       30.07S
DETROIT LAKES  CLEAR     82  64  54 CALM      30.08S
MOORHEAD       CLEAR     84  64  51 S6        30.03F
PARK RAPIDS    CLEAR     82  65  56 SW3       30.08R
MAHNOMEN       FAIR      79  67  67 CALM      30.06S
$$
MNZ006-009>011-018-025>026-040300-
   North Central Minnesota

CITY           SKY/WX    TMP DP  RH WIND       PRES   REMARKS
BAUDETTE       PTCLDY    73  63  70 N16G28    30.08
INTL FALLS     PTCLDY    75  67  76 CALM      30.05
WASKISH          N/A     81  66  61 CALM      30.06R
BIG FORK       CLEAR     73  70  88 CALM      30.10F
LONGVILLE      CLEAR     81  66  61 CALM      30.08R
GRAND RAPIDS   CLEAR     76  67  73 S5        30.10R
ORR            PTCLDY    79  63  57 CALM      30.04F
COOK           CLEAR     81  61  50 CALM      30.07F
WALKER         FAIR      76  73  88 CALM      30.07S
$$
MNZ012-019>021-037-040300-
   Northeast Minnesota

CITY           SKY/WX    TMP DP  RH WIND       PRES   REMARKS
DULUTH         PTCLDY    74  64  71 SE5       30.09S
ELY            CLEAR     81  54  39 S3        30.09F
HIBBING        CLEAR     75  60  59 SE5       30.08S
EVELETH        CLEAR     77  64  63 SE3       30.11S
DULUTH HARBOR  MOCLDY    68  61  77 N5        30.08R
TWO HARBORS    PTCLDY    73  63  68 CALM      30.08R
SILVER BAY     PTCLDY    72  61  68 CALM      30.08S
GRAND MARAIS     N/A     58  55  90 CALM      30.07S
G MARAIS ARPRT PTCLDY    70  55  60 CALM      30.13S
$$
MNZ029>031-032-039>041-046>048-054>057-064-040300-
   West Central Minnesota

CITY           SKY/WX    TMP DP  RH WIND       PRES   REMARKS
FERGUS FALLS   CLEAR     79  70  73 S5        30.01S
WHEATON          N/A     81  68  65 E8        30.06S
MORRIS         CLEAR     79  68  69 SE5       30.07S
ALEXANDRIA     CLEAR     80  67  64 SE5       30.09S
ELBOW LAKE     FAIR      78  71  78 CALM      30.06F
WADENA         CLEAR     79  70  73 CALM      30.07F
GLENWOOD       CLEAR     79  72  78 CALM      30.08F
APPLETON       CLEAR     81  72  74 CALM      30.04S
BENSON         CLEAR     79  70  73 CALM      30.06S
ORTONVILLE     CLEAR     82  73  74 E5        30.05R
MADISON        CLEAR     81  73  78 E6        30.05S
WILLMAR          N/A     81  70  69 CALM      30.09S
$$
MNZ033>034-036-042>043-049>051-058-059-040300-
   Central Minnesota

CITY           SKY/WX    TMP DP  RH WIND       PRES   REMARKS
ST CLOUD       CLEAR     81  70  69 CALM      30.05F
SAUK CENTRE    FAIR      79  70  74 SE3       30.07F
PAYNESVILLE    CLEAR     79  73  83 CALM      30.07F
AITKIN         CLEAR     72  64  78 N3        30.06S
PINE RIVER     CLEAR     77  68  73 E7        30.10S
BRAINERD       CLEAR     82  69  64 E5        30.07S
STAPLES        CLEAR     81  66  61 CALM      30.07S
LONG PRAIRIE   FAIR      79  72  78 CALM      30.08S
LITTLE FALLS     N/A     77  77 100 CALM      30.06F
CAMP RIPLEY    FAIR      81  68  64 CALM      30.07F
LITCHFIELD     CLEAR     81  70  69 CALM      30.07R
BUFFALO        PTCLDY    82  68  61 MISG      30.06F
MAPLE LAKE       N/A     81  70  69 CALM      30.07S
HUTCHINSON     CLEAR     79  72  77 E3        30.07S
$$
MNZ037-044-045-052-053-040300-
   East Central Minnesota

CITY           SKY/WX    TMP DP  RH WIND       PRES   REMARKS
PRINCETON      PTCLDY    79  70  73 CALM      30.05S
MORA           PTCLDY    75  66  73 CALM      30.08S
CAMBRIDGE      PTCLDY    82  68  61 CALM      30.05S
RUSH CITY      MOCLDY    77  72  83 CALM      30.06S
MOOSE LAKE     MOCLDY    72  63  73 CALM      30.06S
HINCKLEY       FAIR      79  68  69 CALM      30.07R
CLOQUET        PTCLDY    73  64  73 E3        30.09R
$$
MNZ071>073-080-081-089-090-097-098-040300-
   Southwest Minnesota

CITY           SKY/WX    TMP DP  RH WIND       PRES   REMARKS
MONTEVIDEO     CLEAR     79  72  78 CALM      30.05S
GRANITE FALLS  CLEAR     83  73  73 CALM      30.06S
CANBY          CLEAR     83  71  66 SE5       30.06S
MARSHALL       CLEAR     83  71  67 SE8       30.05S
REDWOOD FALLS  CLEAR     82  68  62 SE5       30.05S
OLIVIA         CLEAR     81  70  69 E5        30.05F
PIPESTONE        N/A     81  70  69 SE3       30.08S
WINDOM         PTCLDY    81  68  65 SE3       30.07S
WORTHINGTON    PTCLDY    79  67  66 SE3       30.08F
TRACY          CLEAR     81  72  74 CALM      30.07R
SLAYTON        CLEAR     78  66  67 SE3       30.09S
$$
MNZ065>067-074>077-082>085-091>093-040300-
   South Central Minnesota

CITY           SKY/WX    TMP DP  RH WIND       PRES   REMARKS
MANKATO        MOCLDY    83  73  72 NE3       30.06F
NEW ULM        PTCLDY    82  70  65 E5        30.06S
ST JAMES         N/A     79  73  83 NE3       30.05S
FAIRMONT       PTCLDY    82  70  66 CALM      30.07R
GLENCOE        PTCLDY    76  63  63 CALM      30.06S
FARIBAULT      PTCLDY    79  72  78 CALM      30.07S
OWATONNA       PTCLDY    81  72  74 CALM      30.08S
WASECA         MOCLDY    81  70  69 E5        30.08S
ALBERT LEA     PTCLDY    81  72  74 CALM      30.07S
$$
MNZ078>079-086>088-094>096-040300-
   Southeast Minnesota

CITY           SKY/WX    TMP DP  RH WIND       PRES   REMARKS
ROCHESTER      CLEAR     79  68  69 NE3       30.08S
RED WING       CLEAR     75  72  88 CALM      30.04S
STANTON        CLEAR     82  71  68 CALM      30.05S
DODGE CENTER   CLEAR     79  70  73 CALM      30.09S
WINONA         MOCLDY    77  72  83 CALM      30.05S
AUSTIN         PTCLDY    81  72  74 CALM      30.08S
PRESTON        PTCLDY    76  67  73 SE8       30.09S
$$
ABBREVIATIONS USED IN REMARKS
   TC - TEMPERATURES IN CELSIUS
  WCI - WIND CHILL INDEX
   HX - HEAT INDEX
  VSB - VISIBILITY
$$



USA.gov is the U.S. government's official web portal to all federal, state and local government web resources and services.